Retour au catalogue

CZ-6A DEB

ActifPO
NORAD 61423·DEBRIS·🇨🇳 China

Lancé Aug 6, 2024 depuis Taiyuan Satellite Launch Center

Loading…

Prochains Passages (prochaines 24 heures)

TLE

FraisSource: Space-Track

Époque: Sep 14, 2026, 05:08 UTC

1 61423U 24140YQ  26257.21425164  .00002049  00000-0  43882-3 0  9997
2 61423  88.8257 243.6034 0129110   2.3085 357.8690 14.53239393109246

Suivez CZ-6A DEB en temps réel avec AllMySat

Download on the App Store